Location: Geelbroek
(52.9503°N, 6.5712°E)
Time: 20:24:51
(UTC+00:00)

Cosmos 2237 Rocket - Pass Details

Date: 15 May 2026
Orbit: 833 x 849 km, 71.0° (Epoch: 8 June)

Event Time Altitude Azimuth Distance (km) Brightness Sun altitude
Rises 20:50:48 0° 326° (NW) 3,424 7.7 -10.2°
Reaches altitude 10° 20:53:53 10° 342° (NNW) 2,484 5.9 -10.5°
Maximum altitude 20:58:11 21° 31° (NNE) 1,804 4.2 -10.9°
Drops below altitude 10° 21:02:27 10° 80° (E) 2,470 4.4 -11.3°
Enters shadow 21:05:15 - 95° (E) 3,318 4.9 -11.5°
